UAL5 KIAH-EGLL

Flight info

Callsign UAL5
Flight time N/A
Altitude 37000
Route LURIC8 HAWES DCT ELD DCT MEM DCT IIU DCT JHW DCT ROC/N0475F390 DCT SSENA DCT BAREE N647B RIKAL/M082F400 DCT 53N050W 54N040W 55N030W 55N020W DCT DOGAL DCT BEXET/N0474F410 DCT DEVOL DCT RINUS DCT LIFFY UL975 MALUD Q38 NUGRA
Aircraft B772/H-SDE2E3FGHIJ5LORVWXY/LB1D1

Departure

Time 2026-05-06 18:54
Airport George Bush Intercontinental Airport (KIAH)

Arrival

Time N/A
Airport London Heathrow Airport (EGLL)
Time Latitude Longitude Altitude Speed Heading
2026-05-06 17:48 29.98382 -95.33591 107 ft 0 kts 59°
2026-05-06 18:37 29.98379 -95.33598 107 ft 2 kts 58°
2026-05-06 18:38 29.98372 -95.33610 107 ft 0 kts 59°
2026-05-06 18:38 29.98365 -95.33621 107 ft 2 kts 42°
2026-05-06 18:38 29.98353 -95.33630 107 ft 2 kts 15°
2026-05-06 18:38 29.98338 -95.33632 107 ft 2 kts 352°
2026-05-06 18:39 29.98324 -95.33627 106 ft 2 kts 327°
2026-05-06 18:39 29.98313 -95.33615 106 ft 2 kts 303°
2026-05-06 18:39 29.98306 -95.33600 106 ft 1 kts 279°
2026-05-06 18:40 29.98306 -95.33591 106 ft 0 kts 275°
2026-05-06 18:43 29.98306 -95.33601 106 ft 3 kts 275°
2026-05-06 18:44 29.98312 -95.33662 106 ft 11 kts 276°
2026-05-06 18:44 29.98317 -95.33765 106 ft 14 kts 270°
2026-05-06 18:44 29.98317 -95.33895 107 ft 17 kts 271°
2026-05-06 18:44 29.98336 -95.34022 107 ft 13 kts 300°
2026-05-06 18:45 29.98375 -95.34123 107 ft 14 kts 276°
2026-05-06 18:45 29.98377 -95.34257 107 ft 18 kts 270°
2026-05-06 18:45 29.98376 -95.34386 107 ft 16 kts 265°
2026-05-06 18:45 29.98354 -95.34451 107 ft 13 kts 238°
2026-05-06 18:46 29.98326 -95.34566 105 ft 13 kts 269°
2026-05-06 18:46 29.98325 -95.34683 103 ft 15 kts 270°
2026-05-06 18:46 29.98325 -95.34804 103 ft 15 kts 270°
2026-05-06 18:46 29.98325 -95.34927 103 ft 15 kts 270°
2026-05-06 18:47 29.98325 -95.35040 103 ft 13 kts 270°
2026-05-06 18:47 29.98325 -95.35132 103 ft 7 kts 270°
2026-05-06 18:47 29.98344 -95.35171 103 ft 6 kts 320°
2026-05-06 18:47 29.98384 -95.35202 103 ft 7 kts 330°
2026-05-06 18:48 29.98441 -95.35239 103 ft 12 kts 332°
2026-05-06 18:48 29.98524 -95.35291 103 ft 13 kts 332°
2026-05-06 18:48 29.98608 -95.35342 104 ft 13 kts 332°
2026-05-06 18:48 29.98685 -95.35388 103 ft 9 kts 332°
2026-05-06 18:49 29.98742 -95.35423 103 ft 9 kts 332°
2026-05-06 18:49 29.98799 -95.35458 104 ft 9 kts 332°
2026-05-06 18:49 29.98841 -95.35484 103 ft 4 kts 332°
2026-05-06 18:49 29.98849 -95.35490 104 ft 0 kts 332°
2026-05-06 18:50 29.98864 -95.35499 103 ft 2 kts 332°
2026-05-06 18:51 29.98887 -95.35538 103 ft 4 kts 263°
2026-05-06 18:51 29.98873 -95.35580 104 ft 6 kts 245°
2026-05-06 18:51 29.98845 -95.35642 104 ft 10 kts 243°
2026-05-06 18:51 29.98815 -95.35708 104 ft 6 kts 242°
2026-05-06 18:52 29.98795 -95.35751 103 ft 6 kts 237°
2026-05-06 18:52 29.98769 -95.35767 104 ft 2 kts 172°
2026-05-06 18:52 29.98735 -95.35753 104 ft 8 kts 156°
2026-05-06 18:52 29.98716 -95.35742 103 ft 0 kts 152°
2026-05-06 18:53 29.98673 -95.35717 104 ft 28 kts 153°
2026-05-06 18:53 29.98284 -95.35480 104 ft 97 kts 152°
2026-05-06 18:54 29.97502 -95.35004 101 ft 155 kts 152°
2026-05-06 18:54 29.96405 -95.34332 192 ft 194 kts 152°
2026-05-06 18:54 29.95213 -95.33564 801 ft 195 kts 149°
2026-05-06 18:54 29.94309 -95.32451 1560 ft 191 kts 112°
2026-05-06 18:55 29.94073 -95.30943 1851 ft 200 kts 102°
2026-05-06 18:55 29.93909 -95.29262 1943 ft 221 kts 83°
2026-05-06 18:55 29.94613 -95.27628 2044 ft 245 kts 44°
2026-05-06 18:55 29.96188 -95.26726 2152 ft 268 kts
2026-05-06 18:56 29.98072 -95.26553 2649 ft 273 kts
2026-05-06 18:56 29.99988 -95.26463 3277 ft 274 kts
2026-05-06 18:56 30.01890 -95.26379 3840 ft 277 kts
2026-05-06 18:56 30.03829 -95.26292 4408 ft 280 kts
2026-05-06 18:57 30.05789 -95.26206 4944 ft 284 kts
2026-05-06 18:57 30.07792 -95.26051 5453 ft 290 kts 10°
2026-05-06 18:57 30.09662 -95.25168 5992 ft 294 kts 30°
2026-05-06 18:57 30.11366 -95.23890 6528 ft 297 kts 34°
2026-05-06 18:58 30.13090 -95.22504 7035 ft 301 kts 34°
2026-05-06 18:58 30.14817 -95.21114 7556 ft 305 kts 34°
2026-05-06 18:58 30.16571 -95.19707 8060 ft 309 kts 34°
2026-05-06 18:58 30.18358 -95.18278 8513 ft 315 kts 33°
2026-05-06 18:59 30.20158 -95.16839 9030 ft 318 kts 33°
2026-05-06 18:59 30.21980 -95.15381 9532 ft 321 kts 33°
2026-05-06 18:59 30.23821 -95.13908 10025 ft 325 kts 33°
2026-05-06 18:59 30.25714 -95.12392 10305 ft 338 kts 33°
2026-05-06 19:00 30.27715 -95.10790 10428 ft 358 kts 33°
2026-05-06 19:00 30.29829 -95.09097 10552 ft 378 kts 33°
2026-05-06 19:00 30.32020 -95.07340 10701 ft 396 kts 33°
2026-05-06 19:00 30.33551 -95.06112 10825 ft 408 kts 33°
2026-05-06 19:01 30.36715 -95.03571 11609 ft 414 kts 33°
2026-05-06 19:01 30.39069 -95.01678 12277 ft 416 kts 33°
2026-05-06 19:01 30.41483 -94.99751 12829 ft 423 kts 33°
2026-05-06 19:01 30.43954 -94.97861 13400 ft 428 kts 32°
2026-05-06 19:02 30.46456 -94.95956 14052 ft 432 kts 32°
2026-05-06 19:02 30.48973 -94.94036 14679 ft 437 kts 31°
2026-05-06 19:02 30.51525 -94.92087 15288 ft 443 kts 31°
2026-05-06 19:02 30.54094 -94.90122 15947 ft 447 kts 31°
2026-05-06 19:03 30.56700 -94.88126 16548 ft 451 kts 31°
2026-05-06 19:03 30.59323 -94.86114 17118 ft 456 kts 30°
2026-05-06 19:03 30.62000 -94.84059 17700 ft 460 kts 30°
2026-05-06 19:03 30.64657 -94.82018 18228 ft 465 kts 30°
2026-05-06 19:04 30.67368 -94.79934 18734 ft 470 kts 30°
2026-05-06 19:04 30.70117 -94.77818 19282 ft 473 kts 30°
2026-05-06 19:04 30.72866 -94.75700 19817 ft 477 kts 29°
2026-05-06 19:04 30.75624 -94.73575 20279 ft 481 kts 29°
2026-05-06 19:05 30.78445 -94.71399 20795 ft 485 kts 29°
2026-05-06 19:05 30.81245 -94.69238 21307 ft 488 kts 29°
2026-05-06 19:05 30.84065 -94.67060 21750 ft 492 kts 29°
2026-05-06 19:05 30.86957 -94.64825 22224 ft 496 kts 29°
2026-05-06 19:06 30.89813 -94.62615 22677 ft 499 kts 29°
2026-05-06 19:06 30.92719 -94.60365 23101 ft 503 kts 29°
2026-05-06 19:06 30.95649 -94.58096 23471 ft 508 kts 29°
2026-05-06 19:06 30.98599 -94.55808 23893 ft 511 kts 28°
2026-05-06 19:07 31.01580 -94.53495 24301 ft 514 kts 28°
2026-05-06 19:07 31.03546 -94.51971 24541 ft 517 kts 28°
2026-05-06 19:07 31.07546 -94.48869 25099 ft 521 kts 28°
2026-05-06 19:07 31.10601 -94.46497 25508 ft 524 kts 28°
2026-05-06 19:08 31.13625 -94.44148 25875 ft 528 kts 28°
2026-05-06 19:08 31.16711 -94.41749 26235 ft 532 kts 28°
2026-05-06 19:08 31.19796 -94.39348 26593 ft 535 kts 28°
2026-05-06 19:08 31.22889 -94.36936 26936 ft 539 kts 28°
2026-05-06 19:09 31.26014 -94.34497 27303 ft 542 kts 28°
2026-05-06 19:09 31.29138 -94.32056 27629 ft 546 kts 28°
2026-05-06 19:09 31.32320 -94.29571 27848 ft 551 kts 28°
2026-05-06 19:09 31.35514 -94.27072 28154 ft 555 kts 28°
2026-05-06 19:10 31.38710 -94.24570 28572 ft 555 kts 28°
2026-05-06 19:10 31.41951 -94.22029 28937 ft 557 kts 28°
2026-05-06 19:10 31.45165 -94.19509 29260 ft 560 kts 28°
2026-05-06 19:10 31.48395 -94.16974 29642 ft 561 kts 28°
2026-05-06 19:11 31.51635 -94.14427 30124 ft 559 kts 27°
2026-05-06 19:11 31.54839 -94.11906 30610 ft 557 kts 27°
2026-05-06 19:11 31.58081 -94.09354 31137 ft 554 kts 27°
2026-05-06 19:11 31.61302 -94.06817 31589 ft 553 kts 27°
2026-05-06 19:12 31.64507 -94.04291 31942 ft 553 kts 27°
2026-05-06 19:12 31.67674 -94.01794 32251 ft 555 kts 27°
2026-05-06 19:12 31.70885 -93.99258 32674 ft 553 kts 26°
2026-05-06 19:12 31.74069 -93.96742 33148 ft 550 kts 26°
2026-05-06 19:13 31.77240 -93.94234 33576 ft 549 kts 26°
2026-05-06 19:13 31.80384 -93.91665 33908 ft 553 kts 30°
2026-05-06 19:13 31.83401 -93.88913 34281 ft 554 kts 31°
2026-05-06 19:13 31.86448 -93.86089 34756 ft 552 kts 31°
2026-05-06 19:14 31.89446 -93.83317 34905 ft 554 kts 31°
2026-05-06 19:14 31.95527 -93.77708 34918 ft 553 kts 31°
2026-05-06 19:15 32.01577 -93.72135 34921 ft 551 kts 31°
2026-05-06 19:15 32.07625 -93.66573 34924 ft 555 kts 31°
2026-05-06 19:16 32.13726 -93.60953 34925 ft 552 kts 31°